| time (UTC) | temp F | wind direction | speed MPH | gust MPH | rain 1hr in | rain 24hr in | rain mn in | humidity % | barometer mb |
| 20260503225524 | 79 | 203 | 0.0 | 2.0 | 0.00 | 0.00 | 0.00 | 36 | 1008.8 |
| 20260503225029 | 79 | 213 | 0.0 | 8.0 | 0.00 | 0.00 | 0.00 | 35 | 1009.0 |
| 20260503224517 | 79 | 213 | 1.0 | 8.0 | 0.00 | 0.00 | 0.00 | 35 | 1008.9 |
| 20260503224022 | 79 | 239 | 1.0 | 7.0 | 0.00 | 0.00 | 0.00 | 34 | 1008.9 |
| 20260503223528 | 80 | 202 | 1.0 | 5.0 | 0.00 | 0.00 | 0.00 | 34 | 1008.9 |
| 20260503223034 | 80 | 213 | 0.0 | 12.0 | 0.00 | 0.00 | 0.00 | 33 | 1009.0 |
| 20260503222519 | 80 | 279 | 1.0 | 12.0 | 0.00 | 0.00 | 0.00 | 34 | 1009.1 |
| 20260503222044 | 80 | 244 | 1.0 | 7.0 | 0.00 | 0.00 | 0.00 | 33 | 1009.0 |
| 20260503221529 | 80 | 169 | 2.0 | 11.0 | 0.00 | 0.00 | 0.00 | 34 | 1009.1 |
| 20260503221033 | 80 | 227 | 0.0 | 8.0 | 0.00 | 0.00 | 0.00 | 34 | 1009.1 |
| 20260503220519 | 80 | 197 | 1.0 | 8.0 | 0.00 | 0.00 | 0.00 | 33 | 1009.3 |
| 20260503220024 | 80 | 234 | 0.0 | 11.0 | 0.00 | 0.00 | 0.00 | 34 | 1009.2 |
| 20260503215530 | 80 | 256 | 1.0 | 17.0 | 0.00 | 0.00 | 0.00 | 33 | 1009.2 |
| 20260503215018 | 80 | 188 | 2.0 | 17.0 | 0.00 | 0.00 | 0.00 | 33 | 1009.3 |
| 20260503214524 | 80 | 182 | 2.0 | 11.0 | 0.00 | 0.00 | 0.00 | 33 | 1009.2 |
| 20260503214027 | 80 | 196 | 1.0 | 12.0 | 0.00 | 0.00 | 0.00 | 33 | 1009.4 |
| 20260503213533 | 80 | 219 | 3.0 | 12.0 | 0.00 | 0.00 | 0.00 | 33 | 1009.5 |
| 20260503213057 | 80 | 282 | 1.0 | 10.0 | 0.00 | 0.00 | 0.00 | 33 | 1009.5 |
| 20260503212522 | 80 | 237 | 0.0 | 9.0 | 0.00 | 0.00 | 0.00 | 33 | 1009.6 |
| 20260503212026 | 80 | 186 | 1.0 | 9.0 | 0.00 | 0.00 | 0.00 | 34 | 1009.6 |
| 20260503211533 | 80 | 261 | 1.0 | 11.0 | 0.00 | 0.00 | 0.00 | 33 | 1009.7 |
| 20260503211037 | 80 | 265 | 1.0 | 9.0 | 0.00 | 0.00 | 0.00 | 33 | 1009.8 |
| 20260503210542 | 80 | 217 | 1.0 | 10.0 | 0.00 | 0.00 | 0.00 | 33 | 1009.8 |
| 20260503210026 | 80 | 220 | 2.0 | 10.0 | 0.00 | 0.00 | 0.00 | 32 | 1010.0 |
| 20260503205551 | 80 | 212 | 2.0 | 9.0 | 0.00 | 0.00 | 0.00 | 32 | 1010.1 |
| 20260503205035 | 80 | 180 | 0.0 | 7.0 | 0.00 | 0.00 | 0.00 | 34 | 1010.1 |
| 20260503204521 | 80 | 223 | 1.0 | 10.0 | 0.00 | 0.00 | 0.00 | 34 | 1010.3 |
| 20260503204028 | 79 | 306 | 1.0 | 14.0 | 0.00 | 0.00 | 0.00 | 33 | 1010.4 |
| 20260503203534 | 80 | 271 | 2.0 | 14.0 | 0.00 | 0.00 | 0.00 | 35 | 1010.4 |
| 20260503203018 | 79 | 220 | 1.0 | 8.0 | 0.00 | 0.00 | 0.00 | 35 | 1010.4 |
| 20260503202526 | 79 | 185 | 1.0 | 17.0 | 0.00 | 0.00 | 0.00 | 36 | 1010.5 |
| 20260503202029 | 79 | 227 | 3.0 | 17.0 | 0.00 | 0.00 | 0.00 | 35 | 1010.6 |
| 20260503201535 | 79 | 297 | 2.0 | 10.0 | 0.00 | 0.00 | 0.00 | 36 | 1010.7 |
| 20260503201019 | 79 | 183 | 1.0 | 6.0 | 0.00 | 0.00 | 0.00 | 37 | 1010.7 |
| 20260503200544 | 79 | 242 | 1.0 | 14.0 | 0.00 | 0.00 | 0.00 | 37 | 1010.7 |
| 20260503200028 | 79 | 189 | 2.0 | 14.0 | 0.00 | 0.00 | 0.00 | 36 | 1010.9 |
| 20260503195533 | 79 | 186 | 1.0 | 9.0 | 0.00 | 0.00 | 0.00 | 37 | 1010.9 |
| 20260503195018 | 78 | 196 | 2.0 | 12.0 | 0.00 | 0.00 | 0.00 | 37 | 1010.9 |
| 20260503194527 | 78 | 231 | 1.0 | 12.0 | 0.00 | 0.00 | 0.00 | 38 | 1011.1 |
| 20260503194033 | 78 | 192 | 0.0 | 8.0 | 0.00 | 0.00 | 0.00 | 39 | 1011.2 |
| 20260503193539 | 77 | 223 | 2.0 | 9.0 | 0.00 | 0.00 | 0.00 | 39 | 1011.3 |
| 20260503193023 | 77 | 201 | 2.0 | 9.0 | 0.00 | 0.00 | 0.00 | 39 | 1011.4 |
| 20260503192528 | 77 | 217 | 1.0 | 9.0 | 0.00 | 0.00 | 0.00 | 39 | 1011.6 |
| 20260503192053 | 77 | 214 | 2.0 | 10.0 | 0.00 | 0.00 | 0.00 | 39 | 1011.5 |
| 20260503191518 | 77 | 207 | 2.0 | 10.0 | 0.00 | 0.00 | 0.00 | 38 | 1011.6 |
| 20260503191043 | 77 | 185 | 2.0 | 11.0 | 0.00 | 0.00 | 0.00 | 39 | 1011.7 |
| 20260503190527 | 77 | 201 | 2.0 | 12.0 | 0.00 | 0.00 | 0.00 | 38 | 1011.8 |
| 20260503190030 | 77 | 263 | 1.0 | 12.0 | 0.00 | 0.00 | 0.00 | 40 | 1011.9 |
| 20260503185533 | 76 | 182 | 1.0 | 10.0 | 0.00 | 0.00 | 0.00 | 40 | 1011.9 |
| 20260503185057 | 76 | 182 | 3.0 | 10.0 | 0.00 | 0.00 | 0.00 | 40 | 1012.0 |
| 20260503184521 | 76 | 232 | 2.0 | 10.0 | 0.00 | 0.00 | 0.00 | 42 | 1012.1 |
| 20260503184026 | 76 | 254 | 2.0 | 13.0 | 0.00 | 0.00 | 0.00 | 41 | 1012.2 |
| 20260503183553 | 75 | 277 | 2.0 | 13.0 | 0.00 | 0.00 | 0.00 | 42 | 1012.2 |
| 20260503183021 | 75 | 215 | 0.0 | 12.0 | 0.00 | 0.00 | 0.00 | 42 | 1012.2 |
| 20260503182526 | 75 | 192 | 2.0 | 12.0 | 0.00 | 0.00 | 0.00 | 42 | 1012.3 |
| 20260503182030 | 74 | 179 | 1.0 | 10.0 | 0.00 | 0.00 | 0.00 | 44 | 1012.5 |
| 20260503181535 | 74 | 217 | 2.0 | 10.0 | 0.00 | 0.00 | 0.00 | 42 | 1012.5 |
| 20260503181020 | 74 | 215 | 2.0 | 9.0 | 0.00 | 0.00 | 0.00 | 43 | 1012.7 |
| 20260503180527 | 74 | 183 | 1.0 | 11.0 | 0.00 | 0.00 | 0.00 | 43 | 1012.8 |
| 20260503180031 | 74 | 247 | 2.0 | 11.0 | 0.00 | 0.00 | 0.00 | 44 | 1012.9 |
| 20260503175536 | 74 | 234 | 0.0 | 10.0 | 0.00 | 0.00 | 0.00 | 45 | 1013.0 |
| 20260503175041 | 73 | 207 | 2.0 | 15.0 | 0.00 | 0.00 | 0.00 | 44 | 1013.1 |
| 20260503174524 | 73 | 208 | 1.0 | 9.0 | 0.00 | 0.00 | 0.00 | 44 | 1013.3 |
| 20260503174030 | 73 | 276 | 1.0 | 9.0 | 0.00 | 0.00 | 0.00 | 46 | 1013.4 |
| 20260503173519 | 73 | 213 | 2.0 | 11.0 | 0.00 | 0.00 | 0.00 | 46 | 1013.4 |
| 20260503173045 | 73 | 236 | 2.0 | 11.0 | 0.00 | 0.00 | 0.00 | 46 | 1013.4 |
| 20260503172529 | 72 | 176 | 1.0 | 9.0 | 0.00 | 0.00 | 0.00 | 47 | 1013.5 |
| 20260503172035 | 72 | 196 | 1.0 | 9.0 | 0.00 | 0.00 | 0.00 | 47 | 1013.7 |
| 20260503171521 | 72 | 220 | 1.0 | 6.0 | 0.00 | 0.00 | 0.00 | 47 | 1013.7 |
| 20260503171025 | 72 | 206 | 0.0 | 8.0 | 0.00 | 0.00 | 0.00 | 48 | 1013.8 |
| 20260503170531 | 71 | 197 | 1.0 | 8.0 | 0.00 | 0.00 | 0.00 | 47 | 1013.8 |
| 20260503150528 | 63 | 147 | 0.0 | 5.0 | 0.00 | 0.00 | 0.00 | 49 | 1015.3 |
| 20260503131029 | 52 | 188 | 0.0 | 1.0 | 0.00 | 0.00 | 0.00 | 62 | 1016.1 |
| 20260503130534 | 52 | 174 | 0.0 | 1.0 | 0.00 | 0.00 | 0.00 | 63 | 1016.1 |
| 20260503110523 | 47 | 180 | 0.0 | 0.0 | 0.00 | 0.00 | 0.00 | 71 | 1016.1 |
| 20260503081519 | 46 | 132 | 0.0 | 0.0 | 0.00 | 0.00 | 0.00 | 73 | 1016.7 |
| 20260503081024 | 45 | 87 | 0.0 | 0.0 | 0.00 | 0.00 | 0.00 | 76 | 1016.8 |
| 20260503080529 | 44 | 42 | 0.0 | 0.0 | 0.00 | 0.00 | 0.00 | 77 | 1016.9 |
| 20260503072547 | 44 | 42 | 0.0 | 0.0 | 0.00 | 0.00 | 0.00 | 81 | 1017.1 |
| 20260503072030 | 44 | 42 | 0.0 | 0.0 | 0.00 | 0.00 | 0.00 | 82 | 1017.1 |
| 20260503071519 | 44 | 42 | 0.0 | 0.0 | 0.00 | 0.00 | 0.00 | 82 | 1017.1 |
| 20260503071044 | 44 | 42 | 0.0 | 0.0 | 0.00 | 0.00 | 0.00 | 81 | 1017.1 |
| 20260503070528 | 44 | 42 | 0.0 | 0.0 | 0.00 | 0.00 | 0.00 | 81 | 1017.2 |
| 20260503055023 | 46 | 42 | 0.0 | 0.0 | 0.00 | 0.00 | 0.00 | 79 | 1017.6 |
| 20260503054528 | 46 | 42 | 0.0 | 0.0 | 0.00 | 0.00 | 0.00 | 79 | 1017.6 |
| 20260503054053 | 46 | 42 | 0.0 | 0.0 | 0.00 | 0.00 | 0.00 | 79 | 1017.6 |
| 20260503053537 | 46 | 42 | 0.0 | 0.0 | 0.00 | 0.00 | 0.00 | 79 | 1017.6 |
| 20260503053024 | 46 | 42 | 0.0 | 0.0 | 0.00 | 0.00 | 0.00 | 79 | 1017.6 |
| 20260503052528 | 47 | 42 | 0.0 | 0.0 | 0.00 | 0.00 | 0.00 | 79 | 1017.7 |
| 20260503052055 | 47 | 42 | 0.0 | 0.0 | 0.00 | 0.00 | 0.00 | 79 | 1017.7 |
| 20260503051521 | 47 | 42 | 0.0 | 0.0 | 0.00 | 0.00 | 0.00 | 79 | 1017.7 |
| 20260503051026 | 47 | 42 | 0.0 | 0.0 | 0.00 | 0.00 | 0.00 | 79 | 1017.7 |
| 20260503050532 | 47 | 42 | 0.0 | 0.0 | 0.00 | 0.00 | 0.00 | 78 | 1017.7 |
| 20260503050038 | 47 | 42 | 0.0 | 0.0 | 0.00 | 0.00 | 0.00 | 77 | 1017.7 |
| 20260503045523 | 47 | 42 | 0.0 | 0.0 | 0.00 | 0.00 | 0.00 | 76 | 1017.8 |
| 20260503045029 | 47 | 42 | 0.0 | 0.0 | 0.00 | 0.00 | 0.00 | 76 | 1017.7 |
| 20260503044554 | 48 | 42 | 0.0 | 0.0 | 0.00 | 0.00 | 0.00 | 75 | 1017.7 |
| 20260503044038 | 48 | 42 | 0.0 | 0.0 | 0.00 | 0.00 | 0.00 | 76 | 1017.7 |
| 20260503043524 | 48 | 42 | 0.0 | 0.0 | 0.00 | 0.00 | 0.00 | 76 | 1017.7 |
| 20260503043029 | 48 | 42 | 0.0 | 0.0 | 0.00 | 0.00 | 0.00 | 76 | 1017.6 |
| 20260503042534 | 48 | 42 | 0.0 | 0.0 | 0.00 | 0.00 | 0.00 | 75 | 1017.7 |
| 20260503042023 | 48 | 42 | 0.0 | 0.0 | 0.00 | 0.00 | 0.00 | 74 | 1017.7 |
| 20260503041528 | 48 | 42 | 0.0 | 0.0 | 0.00 | 0.00 | 0.00 | 74 | 1017.7 |
| 20260503041053 | 48 | 42 | 0.0 | 0.0 | 0.00 | 0.00 | 0.00 | 74 | 1017.7 |
| 20260503040537 | 49 | 42 | 0.0 | 0.0 | 0.00 | 0.00 | 0.00 | 75 | 1017.8 |
| 20260503040021 | 48 | 42 | 0.0 | 0.0 | 0.00 | 0.00 | 0.00 | 74 | 1017.8 |
| 20260503035526 | 48 | 36 | 0.0 | 0.0 | 0.00 | 0.00 | 0.00 | 73 | 1017.7 |
| 20260503035032 | 48 | 36 | 0.0 | 0.0 | 0.00 | 0.00 | 0.00 | 73 | 1017.8 |
| 20260503034537 | 49 | 36 | 0.0 | 0.0 | 0.00 | 0.00 | 0.00 | 73 | 1017.9 |
| 20260503034022 | 49 | 36 | 0.0 | 0.0 | 0.00 | 0.00 | 0.00 | 73 | 1017.9 |
| 20260503033527 | 49 | 36 | 0.0 | 0.0 | 0.00 | 0.00 | 0.00 | 72 | 1017.9 |
| 20260503033032 | 49 | 36 | 0.0 | 0.0 | 0.00 | 0.00 | 0.00 | 72 | 1017.9 |
| 20260503032557 | 49 | 36 | 0.0 | 0.0 | 0.00 | 0.00 | 0.00 | 72 | 1017.9 |
| 20260503032026 | 50 | 36 | 0.0 | 0.0 | 0.00 | 0.00 | 0.00 | 72 | 1017.9 |
| 20260503031531 | 50 | 36 | 0.0 | 0.0 | 0.00 | 0.00 | 0.00 | 71 | 1017.9 |
| 20260503031036 | 50 | 36 | 0.0 | 0.0 | 0.00 | 0.00 | 0.00 | 71 | 1017.9 |
| 20260503030521 | 50 | 36 | 0.0 | 0.0 | 0.00 | 0.00 | 0.00 | 69 | 1017.9 |
| 20260503030025 | 50 | 36 | 0.0 | 0.0 | 0.00 | 0.00 | 0.00 | 69 | 1017.9 |
| 20260503025531 | 51 | 36 | 0.0 | 0.0 | 0.00 | 0.00 | 0.00 | 68 | 1017.9 |
| 20260503025037 | 51 | 36 | 0.0 | 0.0 | 0.00 | 0.00 | 0.00 | 67 | 1017.9 |
| 20260503024521 | 51 | 36 | 0.0 | 0.0 | 0.00 | 0.00 | 0.00 | 66 | 1017.9 |
| 20260503024047 | 51 | 36 | 0.0 | 0.0 | 0.00 | 0.00 | 0.00 | 65 | 1017.8 |
| 20260503023551 | 51 | 36 | 0.0 | 0.0 | 0.00 | 0.00 | 0.00 | 64 | 1017.8 |
| 20260503023035 | 52 | 36 | 0.0 | 0.0 | 0.00 | 0.00 | 0.00 | 63 | 1017.7 |
| 20260503022524 | 52 | 36 | 0.0 | 0.0 | 0.00 | 0.00 | 0.00 | 61 | 1017.7 |
| 20260503022049 | 52 | 36 | 0.0 | 0.0 | 0.00 | 0.00 | 0.00 | 60 | 1017.7 |
| 20260503021532 | 53 | 36 | 0.0 | 0.0 | 0.00 | 0.00 | 0.00 | 59 | 1017.6 |
| 20260503021057 | 53 | 36 | 0.0 | 0.0 | 0.00 | 0.00 | 0.00 | 58 | 1017.6 |
| 20260503020541 | 53 | 36 | 0.0 | 0.0 | 0.00 | 0.00 | 0.00 | 58 | 1017.6 |
| 20260503020046 | 54 | 36 | 0.0 | 0.0 | 0.00 | 0.00 | 0.00 | 57 | 1017.5 |
| 20260503015529 | 54 | 36 | 0.0 | 0.0 | 0.00 | 0.00 | 0.00 | 56 | 1017.5 |
| 20260503015035 | 54 | 36 | 0.0 | 0.0 | 0.00 | 0.00 | 0.00 | 55 | 1017.5 |
| 20260503014539 | 55 | 36 | 0.0 | 0.0 | 0.00 | 0.00 | 0.00 | 54 | 1017.4 |
| 20260503014025 | 55 | 36 | 0.0 | 0.0 | 0.00 | 0.00 | 0.00 | 52 | 1017.3 |
| 20260503013531 | 56 | 36 | 0.0 | 0.0 | 0.00 | 0.00 | 0.00 | 52 | 1017.3 |
| 20260503013037 | 56 | 36 | 0.0 | 0.0 | 0.00 | 0.00 | 0.00 | 51 | 1017.3 |
| 20260503012522 | 57 | 36 | 0.0 | 0.0 | 0.00 | 0.00 | 0.00 | 50 | 1017.2 |
| 20260503012032 | 57 | 36 | 0.0 | 0.0 | 0.00 | 0.00 | 0.00 | 48 | 1017.2 |
| 20260503011537 | 58 | 36 | 0.0 | 0.0 | 0.00 | 0.00 | 0.00 | 48 | 1017.2 |
| 20260503011022 | 58 | 36 | 0.0 | 0.0 | 0.00 | 0.00 | 0.00 | 47 | 1017.2 |
| 20260503010528 | 59 | 36 | 0.0 | 0.0 | 0.00 | 0.00 | 0.00 | 45 | 1017.2 |
| 20260503010035 | 59 | 36 | 0.0 | 0.0 | 0.00 | 0.00 | 0.00 | 44 | 1017.1 |
| 20260503005539 | 59 | 36 | 0.0 | 0.0 | 0.00 | 0.00 | 0.00 | 43 | 1017.1 |
| 20260503005024 | 60 | 36 | 0.0 | 0.0 | 0.00 | 0.00 | 0.00 | 43 | 1017.2 |
| 20260503004550 | 60 | 36 | 0.0 | 0.0 | 0.00 | 0.00 | 0.00 | 42 | 1017.2 |
| 20260503004033 | 60 | 31 | 0.0 | 0.0 | 0.00 | 0.00 | 0.00 | 41 | 1017.2 |
| 20260503003538 | 61 | 16 | 0.0 | 0.0 | 0.00 | 0.00 | 0.00 | 41 | 1017.2 |
| 20260503003024 | 61 | 5 | 0.0 | 0.0 | 0.00 | 0.00 | 0.00 | 41 | 1017.1 |
| 20260503002533 | 62 | 49 | 0.0 | 0.0 | 0.00 | 0.00 | 0.00 | 40 | 1017.1 |
| 20260503002038 | 62 | 324 | 0.0 | 0.0 | 0.00 | 0.00 | 0.00 | 40 | 1017.1 |
| 20260503001543 | 62 | 41 | 0.0 | 0.0 | 0.00 | 0.00 | 0.00 | 38 | 1017.0 |
| 20260503001029 | 62 | 313 | 0.0 | 0.0 | 0.00 | 0.00 | 0.00 | 37 | 1017.0 |
| 20260503000534 | 63 | 52 | 0.0 | 0.0 | 0.00 | 0.00 | 0.00 | 37 | 1017.1 |
| 20260503000040 | 63 | 350 | 0.0 | 0.0 | 0.00 | 0.00 | 0.00 | 36 | 1017.1 |
| 20260502235525 | 64 | 305 | 0.0 | 0.0 | 0.00 | 0.00 | 0.00 | 35 | 1017.1 |
| 20260502235030 | 64 | 294 | 0.0 | 0.0 | 0.00 | 0.00 | 0.00 | 35 | 1017.1 |
| 20260502234535 | 65 | 11 | 0.0 | 0.0 | 0.00 | 0.00 | 0.00 | 36 | 1017.0 |
| 20260502234040 | 65 | 229 | 0.0 | 0.0 | 0.00 | 0.00 | 0.00 | 35 | 1017.0 |
| 20260502233524 | 65 | 236 | 0.0 | 0.0 | 0.00 | 0.00 | 0.00 | 35 | 1017.1 |
| 20260502233034 | 65 | 265 | 0.0 | 1.0 | 0.00 | 0.00 | 0.00 | 36 | 1017.1 |
| 20260502232540 | 65 | 49 | 0.0 | 1.0 | 0.00 | 0.00 | 0.00 | 35 | 1017.1 |
| 20260502232044 | 65 | 49 | 0.0 | 0.0 | 0.00 | 0.00 | 0.00 | 35 | 1017.1 |
| 20260502231548 | 66 | 49 | 0.0 | 0.0 | 0.00 | 0.00 | 0.00 | 34 | 1017.1 |
| 20260502231032 | 66 | 27 | 0.0 | 0.0 | 0.00 | 0.00 | 0.00 | 33 | 1017.2 |
| 20260502230537 | 66 | 332 | 0.0 | 0.0 | 0.00 | 0.00 | 0.00 | 34 | 1017.2 |
| 20260502230023 | 66 | 236 | 0.0 | 0.0 | 0.00 | 0.00 | 0.00 | 33 | 1017.1 |
| 20260502225528 | 66 | 238 | 0.0 | 0.0 | 0.00 | 0.00 | 0.00 | 33 | 1017.2 |